SCP
0 0 0 0 0 0 0 0 0 0 0 0 0 0 0 0 0 0 0 0 0 0 0 0 0 0 0 0 0 0 0 0
0 0 0 0 0 0 0 0 0 0 0 0 0 0 0 0 0 0 0 0 0 0 0 0 0 0 0 0 0 0 0 0
0 0 0 0 0 0 0 0 0 0 0 0 0 0 0 0 0 0 0 0 0 0 0 0 0 0 0 0 0 0 0 0
0 0 0 0 0 0 0 0 0 0 0 0 0 0 0 0 0 0 0 0 0 0 0 0 0 0 0 0 0 0 0 0
0 0 0 0 0 0 0 0 0 0 0 0 0 0 0 0 0 0 0 0 0 0 0 0 0 0 0 0 0 0 0 0
0 0 0 0 0 0 0 0 0 0 0 0 0 0 0 0 0 0 0 0 0 0 0 0 0 0 0 0 0 0 0 0
0 0 0 0 0 0 0 0 0 0 0 0 0 0 0 0 0 0 0 0 0 0 0 0 0 0 0 0 0 0 0 0
0 0 0 0 0 0 0 0 0 0 0 0 0 0 0 0 0 0 0 0 0 0 0 0 0 0 0 0 0 0 0 0
0 0 0 0 0 0 0 0 0 0 0 0 0 0 0 0 0 0 0 0 0 0 0 0 0 0 0 0 0 0 0 0
0 0 0 0 0 0 0 0 0 0 0 0 0 0 0 0 0 0 0 0 0 0 0 0 0 0 0 0 0 0 0 0
0 0 0 0 0 0 0 0 0 0 0 0 0 0 0 0 0 0 0 0 0 0 0 0 0 0 0 0 0 0 0 0
0 0 0 0 0 0 0 0 0 0 0 0 0 0 0 0 0 0 0 0 0 0 0 0 0 0 0 0 0 0 0 0
0 0 0 0 0 0 0 0 0 0 0 0 0 0 0 0 0 0 0 0 0 0 0 0 0 0 0 0 0 0 0 0
0 0 0 0 0 0 0 0 0 0 0 0 0 0 0 0 0 0 0 0 0 0 0 0 0 0 0 0 0 0 0 0
0 0 0 0 0 0 0 0 0 0 0 0 0 0 0 0 0 0 0 0 0 0 0 0 0 0 0 0 0 0 0 0
0 0 0 0 0 0 0 0 0 0 0 0 0 0 0 0 0 0 0 0 0 0 0 0 0 0 0 0 0 0 0 0
0 0 0 0 0 0 0 0 0 0 0 0 0 0 0 0 0 0 0 0 0 0 0 0 0 0 0 0 0 0 0 0
0 0 0 0 0 0 0 0 0 0 0 0 0 0 0 0 0 0 0 0 0 0 0 0 0 0 0 0 0 0 0 0
0 0 0 0 0 0 0 0 0 0 0 0 0 0 0 0 0 0 0 0 0 0 0 0 0 0 0 0 0 0 0 0
0 0 0 0 0 0 0 0 0 0 0 0 0 0 0 0 0 0 0 0 0 0 0 0 0 0 0 0 0 0 0 0
Wind_Speed_500mb
26 27 38 50 52 54 55 58 61 68 76 77 78 80 78 74 64 60 61 58 55 56 59 61 65 63 64 61 51 40 38 40
15 25 29 33 36 43 50 55 60 63 69 77 79 78 76 66 64 66 63 64 61 59 59 56 62 63 64 59 50 41 41 43
11 8 11 19 25 31 37 41 47 54 59 66 73 75 77 71 70 67 67 66 62 63 64 63 61 58 63 59 48 40 47 44
17 22 16 12 14 20 25 29 31 34 37 41 48 53 55 58 60 59 61 61 63 63 58 56 55 56 61 53 47 39 42 42
16 20 18 16 15 18 21 24 24 25 28 32 36 39 43 46 47 51 53 54 58 57 55 50 51 57 56 52 46 39 41 42
20 21 19 19 19 19 20 20 22 23 27 30 33 37 39 41 45 48 50 52 53 51 45 43 49 53 52 45 42 41 41 39
33 26 23 22 22 23 25 23 25 26 28 31 34 33 35 36 37 40 42 42 37 34 40 39 43 36 34 36 38 40 41 36
40 33 29 31 27 28 28 27 27 28 26 26 26 26 26 26 27 26 27 25 33 33 40 40 36 33 36 35 37 35 35 36
42 43 38 33 30 30 31 28 28 28 24 22 20 21 21 20 19 24 25 28 33 39 36 42 39 35 33 38 37 36 33 31
51 50 48 40 33 32 32 29 30 29 25 22 21 22 21 21 23 24 26 34 34 34 44 38 33 30 35 38 37 35 35 35
32 33 35 38 37 33 31 32 31 27 26 25 24 23 22 21 23 27 30 34 36 38 37 33 31 31 37 38 38 37 39 37
22 21 22 27 29 29 30 30 27 26 28 26 23 22 22 23 23 28 32 34 35 36 39 39 37 38 39 43 43 42 39 37
17 17 17 17 17 18 21 24 26 25 24 22 22 22 23 25 25 30 33 36 38 39 41 43 39 40 43 45 45 42 43 40
10 7 6 7 9 11 13 16 19 21 22 21 21 22 23 24 24 29 33 35 36 38 38 40 41 43 42 42 50 51 44 41
9 9 9 8 6 4 7 11 14 16 17 17 17 18 18 19 22 25 27 29 33 37 39 41 41 43 47 47 51 52 49 46
21 21 22 20 17 15 13 10 8 8 9 10 11 13 14 16 20 23 26 29 30 32 36 41 43 41 44 48 51 51 48 47
25 23 24 22 20 18 14 10 7 7 7 7 8 11 14 16 20 21 24 29 35 37 38 41 42 42 43 45 47 50 51 53
29 25 22 18 16 15 12 8 5 2 2 5 8 10 12 14 18 20 22 27 32 36 39 42 45 46 48 49 51 52 55 61
27 24 20 17 15 15 13 10 7 4 4 4 5 8 11 15 18 20 22 25 28 31 36 40 43 47 49 52 58 61 63 67
26 24 20 16 14 14 11 9 8 9 9 10 11 12 14 17 19 22 25 27 30 32 35 38 41 42 46 52 60 63 64 66
Wind_Direction_500mb
248 245 232 239 241 236 237 240 243 245 247 250 249 249 250 249 244 240 240 244 247 249 250 242 241 243 246 244 245 250 247 250
251 253 256 246 239 243 242 239 238 238 237 239 243 241 239 235 232 233 234 235 236 240 241 245 242 241 239 244 239 246 245 248
29 335 280 256 253 256 255 250 248 248 245 242 242 243 244 240 242 240 236 237 240 238 244 249 246 241 241 230 236 242 246 246
355 355 337 315 281 264 257 254 253 254 253 248 246 247 246 245 246 241 242 241 241 245 245 246 241 240 233 231 232 239 248 240
304 314 319 313 305 288 279 278 268 256 248 243 241 242 241 242 243 243 243 243 244 243 245 233 236 231 228 231 234 238 240 248
334 296 299 297 297 288 279 270 263 260 260 256 252 250 250 249 248 246 245 246 244 242 235 223 225 229 223 227 231 242 241 231
310 299 288 305 293 290 279 265 259 260 256 254 253 253 253 256 256 250 245 241 231 227 216 217 217 214 232 243 240 231 218 229
296 291 291 301 288 287 283 270 262 258 254 253 255 253 248 241 240 237 234 226 213 212 222 209 218 229 241 237 228 231 232 224
286 287 287 289 283 282 277 265 255 253 248 249 252 252 251 244 230 223 218 216 223 212 222 218 228 240 240 230 230 227 220 220
281 278 277 270 269 269 267 255 248 250 249 252 252 253 247 232 223 229 228 224 216 230 225 225 233 253 241 234 225 219 220 219
274 274 264 255 255 255 256 248 242 247 249 246 246 246 247 237 227 228 232 239 241 234 234 236 247 248 237 227 226 225 227 226
270 268 262 254 248 245 246 242 239 240 246 246 247 248 245 236 230 230 232 234 238 237 239 239 236 230 229 228 229 229 228 238
260 258 255 252 248 243 236 232 233 237 243 247 249 248 246 244 237 237 238 242 243 243 244 240 230 227 227 231 234 233 244 243
242 242 245 236 229 216 215 223 232 239 241 242 243 242 240 240 242 241 242 244 245 246 246 244 239 237 236 242 247 244 243 247
187 172 162 151 152 173 196 210 216 222 225 228 234 240 245 248 246 244 246 249 250 250 251 250 250 253 255 251 247 244 248 251
152 140 129 119 116 116 122 137 161 185 211 223 236 249 252 252 253 253 254 251 250 255 260 260 260 264 262 259 257 256 261 259
145 136 128 123 121 118 116 119 143 170 190 209 233 246 250 251 256 258 260 264 266 265 264 266 266 263 260 259 258 258 262 258
149 141 129 122 115 104 97 89 80 70 194 221 235 246 254 260 264 266 264 267 271 273 273 273 272 269 264 261 259 259 261 260
139 131 121 110 102 92 86 76 69 54 355 320 297 281 275 273 273 275 275 274 275 276 276 275 275 274 272 271 269 265 263 264
135 122 111 100 89 84 74 59 46 31 12 353 338 323 310 299 292 289 287 287 286 285 285 286 282 279 276 272 270 269 270 271
Wind_Speed_850mb
26 27 38 50 52 54 55 58 61 68 76 77 78 80 78 74 64 60 61 58 55 56 59 61 65 63 64 61 51 40 38 40
15 25 29 33 36 43 50 55 60 63 69 77 79 78 76 66 64 66 63 64 61 59 59 56 62 63 64 59 50 41 41 43
11 8 11 19 25 31 37 41 47 54 59 66 73 75 77 71 70 67 67 66 62 63 64 63 61 58 63 59 48 40 47 44
17 22 16 12 14 20 25 29 31 34 37 41 48 53 55 58 60 59 61 61 63 63 58 56 55 56 61 53 47 39 42 42
16 20 18 16 15 18 21 24 24 25 28 32 36 39 43 46 47 51 53 54 58 57 55 50 51 57 56 52 46 39 41 42
20 21 19 19 19 19 20 20 22 23 27 30 33 37 39 41 45 48 50 52 53 51 45 43 49 53 52 45 42 41 41 39
33 26 23 22 22 23 25 23 25 26 28 31 34 33 35 36 37 40 42 42 37 34 40 39 43 36 34 36 38 40 41 36
40 33 29 31 27 28 28 27 27 28 26 26 26 26 26 26 27 26 27 25 33 33 40 40 36 33 36 35 37 35 35 36
42 43 38 33 30 30 31 28 28 28 24 22 20 21 21 20 19 24 25 28 33 39 36 42 39 35 33 38 37 36 33 31
51 50 48 40 33 32 32 29 30 29 25 22 21 22 21 21 23 24 26 34 34 34 44 38 33 30 35 38 37 35 35 35
32 33 35 38 37 33 31 32 31 27 26 25 24 23 22 21 23 27 30 34 36 38 37 33 31 31 37 38 38 37 39 37
22 21 22 27 29 29 30 30 27 26 28 26 23 22 22 23 23 28 32 34 35 36 39 39 37 38 39 43 43 42 39 37
17 17 17 17 17 18 21 24 26 25 24 22 22 22 23 25 25 30 33 36 38 39 41 43 39 40 43 45 45 42 43 40
10 7 6 7 9 11 13 16 19 21 22 21 21 22 23 24 24 29 33 35 36 38 38 40 41 43 42 42 50 51 44 41
9 9 9 8 6 4 7 11 14 16 17 17 17 18 18 19 22 25 27 29 33 37 39 41 41 43 47 47 51 52 49 46
21 21 22 20 17 15 13 10 8 8 9 10 11 13 14 16 20 23 26 29 30 32 36 41 43 41 44 48 51 51 48 47
25 23 24 22 20 18 14 10 7 7 7 7 8 11 14 16 20 21 24 29 35 37 38 41 42 42 43 45 47 50 51 53
29 25 22 18 16 15 12 8 5 2 2 5 8 10 12 14 18 20 22 27 32 36 39 42 45 46 48 49 51 52 55 61
27 24 20 17 15 15 13 10 7 4 4 4 5 8 11 15 18 20 22 25 28 31 36 40 43 47 49 52 58 61 63 67
26 24 20 16 14 14 11 9 8 9 9 10 11 12 14 17 19 22 25 27 30 32 35 38 41 42 46 52 60 63 64 66
Wind_Direction_850mb
248 245 232 239 241 236 237 240 243 245 247 250 249 249 250 249 244 240 240 244 247 249 250 242 241 243 246 244 245 250 247 250
251 253 256 246 239 243 242 239 238 238 237 239 243 241 239 235 232 233 234 235 236 240 241 245 242 241 239 244 239 246 245 248
29 335 280 256 253 256 255 250 248 248 245 242 242 243 244 240 242 240 236 237 240 238 244 249 246 241 241 230 236 242 246 246
355 355 337 315 281 264 257 254 253 254 253 248 246 247 246 245 246 241 242 241 241 245 245 246 241 240 233 231 232 239 248 240
304 314 319 313 305 288 279 278 268 256 248 243 241 242 241 242 243 243 243 243 244 243 245 233 236 231 228 231 234 238 240 248
334 296 299 297 297 288 279 270 263 260 260 256 252 250 250 249 248 246 245 246 244 242 235 223 225 229 223 227 231 242 241 231
310 299 288 305 293 290 279 265 259 260 256 254 253 253 253 256 256 250 245 241 231 227 216 217 217 214 232 243 240 231 218 229
296 291 291 301 288 287 283 270 262 258 254 253 255 253 248 241 240 237 234 226 213 212 222 209 218 229 241 237 228 231 232 224
286 287 287 289 283 282 277 265 255 253 248 249 252 252 251 244 230 223 218 216 223 212 222 218 228 240 240 230 230 227 220 220
281 278 277 270 269 269 267 255 248 250 249 252 252 253 247 232 223 229 228 224 216 230 225 225 233 253 241 234 225 219 220 219
274 274 264 255 255 255 256 248 242 247 249 246 246 246 247 237 227 228 232 239 241 234 234 236 247 248 237 227 226 225 227 226
270 268 262 254 248 245 246 242 239 240 246 246 247 248 245 236 230 230 232 234 238 237 239 239 236 230 229 228 229 229 228 238
260 258 255 252 248 243 236 232 233 237 243 247 249 248 246 244 237 237 238 242 243 243 244 240 230 227 227 231 234 233 244 243
242 242 245 236 229 216 215 223 232 239 241 242 243 242 240 240 242 241 242 244 245 246 246 244 239 237 236 242 247 244 243 247
187 172 162 151 152 173 196 210 216 222 225 228 234 240 245 248 246 244 246 249 250 250 251 250 250 253 255 251 247 244 248 251
152 140 129 119 116 116 122 137 161 185 211 223 236 249 252 252 253 253 254 251 250 255 260 260 260 264 262 259 257 256 261 259
145 136 128 123 121 118 116 119 143 170 190 209 233 246 250 251 256 258 260 264 266 265 264 266 266 263 260 259 258 258 262 258
149 141 129 122 115 104 97 89 80 70 194 221 235 246 254 260 264 266 264 267 271 273 273 273 272 269 264 261 259 259 261 260
139 131 121 110 102 92 86 76 69 54 355 320 297 281 275 273 273 275 275 274 275 276 276 275 275 274 272 271 269 265 263 264
135 122 111 100 89 84 74 59 46 31 12 353 338 323 310 299 292 289 287 287 286 285 285 286 282 279 276 272 270 269 270 271